Weather History for Waycross, GA

Change the Weather History Date:

Thursday, September 19, 2013

  Actual Average (KAMG) Record (KAMG)
Temperature  
Mean Temperature 78 °F 76 °F  
Max Temperature 89 °F 86 °F 95 °F (1970)
Min Temperature 66 °F 67 °F 45 °F (1981)
Degree Days  
Heating Degree Days 0 0  
Month to date heating degree days 0  
Since 1 July heating degree days 0  
Cooling Degree Days 12 11  
Month to date cooling degree days 253  
Year to date cooling degree days 2160  
Growing Degree Days 28 (Base 50)    
Moisture  
Dew Point 69 °F    
Average Humidity 76    
Maximum Humidity 94    
Minimum Humidity 52    
Precipitation  
Precipitation 0.00 in 0.12 in 1.23 in (1952)
Month to date precipitation 2.45  
Year to date precipitation 36.66  
Snow  
Snow 0.00 in 0.00 in 0.00 in ()
Month to date snowfall 0.0  
Since 1 July snowfall 0.0  
Since 1 September snowfall 0.0  
Snow Depth -    
Sea Level Pressure  
Sea Level Pressure 30.09 in    
Wind  
Wind Speed 4 mph (ENE)    
Max Wind Speed 14 mph    
Max Gust Speed -    
Visibility 10 miles    
Events      
T = Trace of Precipitation, MM = Missing Value Source: NWS Daily Summary

Daily Weather History Graph

Daily Weather History Graph

Search for Another Location

Airport:

Trip Planner

Search our weather history database for the weather conditions in past years. The results will help you decide how hot, cold, wet, or windy it might be!

Date:

Astronomy

Sep. 19, 2013 Rise Set
Actual Time 7:16 AM EDT 7:29 PM EDT
Civil Twilight 6:51 AM EDT 7:53 PM EDT
Nautical Twilight 6:23 AM EDT 8:22 PM EDT
Astronomical Twilight 5:55 AM EDT 8:50 PM EDT
Moon 7:32 PM EDT (9/19) 7:20 AM EDT (9/19)
Length of Visible Light 13h 01m
Length of Day
12h 13m
Full, 100% of the Moon is Illuminated
Sep 19
Full
Sep 26
Last Quarter
Oct 4
New
Oct 11
First Quarter
Oct 18
Full

Hourly Weather History & Observations

Time (EDT) Temp. Heat Index Dew Point Humidity Pressure Visibility Wind Dir Wind Speed Gust Speed Precip Events Conditions
12:15 AM 69.8 °F - 68.0 °F 94% 30.12 in 10.0 mi Calm Calm - N/A   Clear
12:35 AM 71.6 °F - 68.0 °F 88% 30.12 in 10.0 mi NNE 3.5 mph - N/A   Clear
12:55 AM 71.6 °F - 68.0 °F 88% 30.12 in 10.0 mi Calm Calm - N/A   Clear
1:15 AM 71.6 °F - 66.2 °F 83% 30.12 in 10.0 mi NE 3.5 mph - N/A   Clear
1:35 AM 69.8 °F - 66.2 °F 88% 30.11 in 10.0 mi NE 5.8 mph - N/A   Clear
1:55 AM 69.8 °F - 66.2 °F 88% 30.11 in 10.0 mi NE 4.6 mph - N/A   Clear
2:15 AM 69.8 °F - 66.2 °F 88% 30.11 in 10.0 mi NE 4.6 mph - N/A   Clear
2:35 AM 69.8 °F - 66.2 °F 88% 30.10 in 10.0 mi NE 4.6 mph - N/A   Clear
2:55 AM 69.8 °F - 66.2 °F 88% 30.10 in 10.0 mi NE 3.5 mph - N/A   Clear
3:15 AM 69.8 °F - 64.4 °F 83% 30.09 in 10.0 mi NE 3.5 mph - N/A   Clear
3:35 AM 69.8 °F - 64.4 °F 83% 30.09 in 10.0 mi NE 4.6 mph - N/A   Clear
3:55 AM 69.8 °F - 64.4 °F 83% 30.08 in 10.0 mi NE 4.6 mph - N/A   Clear
4:15 AM 68.0 °F - 64.4 °F 88% 30.08 in 10.0 mi NE 4.6 mph - N/A   Clear
4:35 AM 68.0 °F - 64.4 °F 88% 30.08 in 10.0 mi NE 3.5 mph - N/A   Clear
4:55 AM 68.0 °F - 64.4 °F 88% 30.08 in 10.0 mi NE 3.5 mph - N/A   Clear
5:15 AM 68.0 °F - 62.6 °F 83% 30.08 in 10.0 mi NE 4.6 mph - N/A   Clear
5:35 AM 68.0 °F - 62.6 °F 83% 30.08 in 10.0 mi NE 4.6 mph - N/A   Clear
5:55 AM 68.0 °F - 62.6 °F 83% 30.08 in 10.0 mi NE 4.6 mph - N/A   Clear
6:15 AM 68.0 °F - 62.6 °F 83% 30.09 in 10.0 mi NE 3.5 mph - N/A   Clear
6:35 AM 68.0 °F - 62.6 °F 83% 30.10 in 10.0 mi NE 4.6 mph - N/A   Clear
6:55 AM 68.0 °F - 62.6 °F 83% 30.10 in 10.0 mi NE 3.5 mph - N/A   Clear
7:15 AM 66.2 °F - 62.6 °F 88% 30.10 in 10.0 mi NE 4.6 mph - N/A   Clear
7:35 AM 68.0 °F - 62.6 °F 83% 30.10 in 10.0 mi NE 3.5 mph - N/A   Clear
7:55 AM 69.8 °F - 64.4 °F 83% 30.11 in 10.0 mi NE 4.6 mph - N/A   Clear
8:15 AM 69.8 °F - 64.4 °F 83% 30.11 in 10.0 mi NE 4.6 mph - N/A   Clear
8:35 AM 71.6 °F - 64.4 °F 78% 30.11 in 10.0 mi NE 5.8 mph - N/A   Clear
8:55 AM 73.4 °F - 66.2 °F 78% 30.12 in 10.0 mi ENE 5.8 mph - N/A   Clear
9:15 AM 75.2 °F - 66.2 °F 73% 30.12 in 10.0 mi ENE 8.1 mph - N/A   Clear
9:35 AM 75.2 °F - 68.0 °F 78% 30.12 in 10.0 mi ENE 10.4 mph - N/A   Clear
9:55 AM 78.8 °F - 69.8 °F 74% 30.12 in 10.0 mi ENE 8.1 mph - N/A   Clear
10:35 AM 80.6 °F 83.9 °F 69.8 °F 70% 30.12 in 10.0 mi ENE 6.9 mph - N/A   Clear
10:55 AM 82.4 °F 87.2 °F 71.6 °F 70% 30.13 in 10.0 mi ENE 8.1 mph - N/A   Clear
11:15 AM 82.4 °F 87.2 °F 71.6 °F 70% 30.14 in 10.0 mi NE 6.9 mph - N/A   Clear
11:35 AM 84.2 °F 89.6 °F 71.6 °F 66% 30.13 in 10.0 mi East 5.8 mph - N/A   Clear
11:55 AM 82.4 °F 87.2 °F 71.6 °F 70% 30.13 in 10.0 mi ENE 3.5 mph - N/A   Scattered Clouds
12:15 PM 84.2 °F 89.6 °F 71.6 °F 66% 30.13 in 10.0 mi East 8.1 mph - N/A   Mostly Cloudy
12:35 PM 84.2 °F 89.6 °F 71.6 °F 66% 30.13 in 10.0 mi East 6.9 mph - N/A   Mostly Cloudy
12:55 PM 86.0 °F 91.8 °F 71.6 °F 62% 30.12 in 10.0 mi NE 6.9 mph - N/A   Mostly Cloudy
1:15 PM 87.8 °F 93.8 °F 71.6 °F 58% 30.11 in 10.0 mi East 6.9 mph - N/A   Scattered Clouds
1:35 PM 87.8 °F 93.8 °F 71.6 °F 58% 30.11 in 10.0 mi East 6.9 mph - N/A   Scattered Clouds
1:55 PM 87.8 °F 93.8 °F 71.6 °F 58% 30.10 in 10.0 mi NNE 6.9 mph - N/A   Scattered Clouds
2:15 PM 87.8 °F 93.8 °F 71.6 °F 58% 30.09 in 10.0 mi NNE 11.5 mph - N/A   Scattered Clouds
2:35 PM 87.8 °F 93.8 °F 71.6 °F 58% 30.08 in 10.0 mi NE 9.2 mph - N/A   Scattered Clouds
2:55 PM 89.6 °F 96.2 °F 71.6 °F 55% 30.07 in 10.0 mi NNE 6.9 mph - N/A   Scattered Clouds
3:15 PM 86.0 °F 91.8 °F 71.6 °F 62% 30.07 in 10.0 mi NNE 6.9 mph - N/A   Scattered Clouds
3:35 PM 87.8 °F 93.8 °F 71.6 °F 58% 30.06 in 10.0 mi NNE 5.8 mph - N/A   Scattered Clouds
3:55 PM 89.6 °F 96.2 °F 71.6 °F 55% 30.05 in 10.0 mi East 6.9 mph - N/A   Clear
4:15 PM 87.8 °F 93.8 °F 71.6 °F 58% 30.05 in 10.0 mi NNE 11.5 mph - N/A   Scattered Clouds
4:35 PM 89.6 °F 96.2 °F 71.6 °F 55% 30.05 in 10.0 mi NE 5.8 mph - N/A   Scattered Clouds
4:55 PM 89.6 °F 94.7 °F 69.8 °F 52% 30.05 in 10.0 mi East 5.8 mph - N/A   Clear
5:15 PM 86.0 °F 91.8 °F 71.6 °F 62% 30.05 in 10.0 mi ENE 4.6 mph - N/A   Scattered Clouds
5:35 PM 87.8 °F 92.6 °F 69.8 °F 55% 30.05 in 10.0 mi ENE 4.6 mph - N/A   Clear
5:55 PM 87.8 °F 93.8 °F 71.6 °F 58% 30.05 in 10.0 mi ESE 13.8 mph - N/A   Scattered Clouds
6:15 PM 84.2 °F 89.6 °F 71.6 °F 66% 30.05 in 10.0 mi East 9.2 mph - N/A   Mostly Cloudy
6:35 PM 84.2 °F 89.6 °F 71.6 °F 66% 30.06 in 10.0 mi ESE 8.1 mph - N/A   Scattered Clouds
6:55 PM 82.4 °F 87.2 °F 71.6 °F 70% 30.06 in 10.0 mi ESE 8.1 mph - N/A   Clear
7:15 PM 80.6 °F 84.6 °F 71.6 °F 74% 30.06 in 10.0 mi ESE 5.8 mph - N/A   Clear
7:35 PM 80.6 °F 84.6 °F 71.6 °F 74% 30.06 in 10.0 mi ESE 5.8 mph - N/A   Clear
7:55 PM 78.8 °F - 73.4 °F 83% 30.07 in 10.0 mi ESE 4.6 mph - N/A   Clear
8:15 PM 78.8 °F - 73.4 °F 83% 30.07 in 10.0 mi ESE 4.6 mph - N/A   Clear
8:35 PM 78.8 °F - 73.4 °F 83% 30.07 in 10.0 mi ESE 5.8 mph - N/A   Clear
8:55 PM 78.8 °F - 73.4 °F 83% 30.08 in 10.0 mi ESE 8.1 mph - N/A   Clear
9:15 PM 77.0 °F - 71.6 °F 83% 30.08 in 10.0 mi ESE 4.6 mph - N/A   Clear
9:35 PM 75.2 °F - 71.6 °F 89% 30.08 in 10.0 mi ESE 4.6 mph - N/A   Clear
9:55 PM 75.2 °F - 71.6 °F 89% 30.08 in 10.0 mi Calm Calm - N/A   Clear
10:15 PM 75.2 °F - 71.6 °F 89% 30.08 in 10.0 mi SE 3.5 mph - N/A   Clear
10:35 PM 75.2 °F - 71.6 °F 89% 30.08 in 10.0 mi ESE 3.5 mph - N/A   Clear
10:55 PM 75.2 °F - 71.6 °F 89% 30.08 in 10.0 mi Calm Calm - N/A   Clear
11:15 PM 73.4 °F - 71.6 °F 94% 30.08 in 10.0 mi Calm Calm - N/A   Clear
11:35 PM 73.4 °F - 71.6 °F 94% 30.07 in 10.0 mi Calm Calm - N/A   Clear
11:55 PM 73.4 °F - 71.6 °F 94% 30.07 in 10.0 mi Calm Calm - N/A   Clear